Retour au catalogue

LEMUR 2 ZACHARY

ActifMétéoSSO
NORAD 42845·PAYLOAD·🇺🇸 United States

Lancé Jul 14, 2017 depuis Baikonur Cosmodrome

Loading…

Prochains Passages (prochaines 24 heures)

TLE

FraisSource: Space-Track

Époque: Sep 14, 2026, 11:37 UTC

1 42845U 17042W   26257.48439975  .00049541  00000-0  64109-3 0  9994
2 42845  97.3530  91.5417 0003149  56.2145 303.9411 15.58764610503078

Suivez LEMUR 2 ZACHARY en temps réel avec AllMySat

Download on the App Store